星链-1433 (STARLINK-1433 )

导读

STARLINK-1433是美国太空探索技术公司Starlink卫星互联网项目的组成卫星,于北京时间2020年6月4日发射入轨。它属于SpaceX部署的第二代星链卫星,主要服务为全球提供高速低延迟卫星互联网接入,推动全球范围网络覆盖,特别服务偏远地区、地面网络未覆盖区域的网络连接需求。

Basic Information
目录编号:
45711
目录名称:
STARLINK-1433
国际标识:
2020-035BG
轨道中心:
EARTH
卫星名称:
星链-1433
卫星全名:
星链-1433 (STARLINK-1433 )
卫星状态:
在轨 (已飞行2205 天)
发射日期:
2020-06-04 UTC
国别 :
美国 (US)
星等 :
--
Orbit Information
数据来源 国际轨道数据 AOE轨道数据
星历时间 2026-06-18T22:37:45+0800
8小时前
查看轨道信息
2026-06-15T06:00:00+0800
4天前
查看轨道信息
半长轴 6737.331km 6738.279km
偏心率 0.0003759 0.0003922
轨道倾角 53.042° 53.042°
近地点辐角 111.460° 104.280°
升交点赤经 246.800° 265.054°
平近点角 248.682° 255.083°
近地点 356.661km 357.499km
远地点 361.727km 362.785km
周期 91.726分钟 91.745分钟
每日圈数 15.698963 15.69565
Detailed Information
固有亮度:
5
最大亮度:
2.5
卫星平台:
Starlink V1.0
覆盖范围:
全球
运营商:
太空探索技术公司
运营商所在国:
美国
制造商(研发单位):
太空探索技术公司
制造商所在国:
美国
使用方式:
暂无
Satellite Introduction
星链(Starlink)计划是由太空探索技术公司(SpaceX)提出的一个巨型低轨卫星互联网星座项目,计划在2019年至2024年间在太空搭建由约1.2万颗卫星组成的“星链”网络,其中1584颗将部署在地球上空550千米处的近地轨道,并从2020年开始工作。该卫星仍在工作。
2D Orbit Map
3D Orbit Map
Orbit Altitude Analysis Chart
Orbit Inclination Analysis Chart
Orbit Comprehensive Analysis Chart
View Comprehensive Chart